Time,TemperatureF,DewpointF,PressureIn,WindDirection,WindDirectionDegrees,WindSpeedMPH,WindSpeedGustMPH,Humidity,HourlyPrecipIn,Conditions,Clouds,dailyrainin,SolarRadiationWatts/m^2,SoftwareType,DateUTC
2013-02-27 00:00:00,39.0,36.3,29.52,SE,124,5.9,9.2,90,0.00,-RA,,0.00,0.0,WeatherDisplay:10.37,2013-02-27 05:00:00,
2013-02-27 00:05:00,39.0,36.3,29.52,ENE,67,8.7,12.7,90,0.00,-RA,,0.00,0.0,WeatherDisplay:10.37,2013-02-27 05:05:00,
2013-02-27 00:10:00,39.0,36.3,29.52,SSE,147,9.4,18.4,90,0.00,-RA,,0.00,0.0,WeatherDisplay:10.37,2013-02-27 05:10:00,
2013-02-27 00:15:00,39.1,36.4,29.52,ESE,118,8.9,15.0,90,0.00,-RA,,0.00,0.0,WeatherDisplay:10.37,2013-02-27 05:15:00,
2013-02-27 00:20:00,39.1,36.4,29.52,SSE,151,8.0,10.4,90,0.00,-RA,,0.00,0.0,WeatherDisplay:10.37,2013-02-27 05:20:00,
2013-02-27 00:25:00,39.1,36.4,29.52,ESE,105,10.5,13.8,90,0.00,-RA,,0.00,0.0,WeatherDisplay:10.37,2013-02-27 05:25:00,
2013-02-27 00:30:00,39.1,36.4,29.52,SSE,152,8.7,14.0,90,0.00,-RA,,0.00,0.0,WeatherDisplay:10.37,2013-02-27 05:30:00,
2013-02-27 00:35:00,39.1,36.4,29.52,SSE,147,6.6,12.0,90,0.00,-RA,,0.00,0.0,WeatherDisplay:10.37,2013-02-27 05:35:00,
2013-02-27 00:40:00,39.2,36.5,29.52,SE,136,6.3,10.4,90,0.00,-RA,,0.00,0.0,WeatherDisplay:10.37,2013-02-27 05:40:00,
2013-02-27 00:45:00,39.2,36.5,29.52,East,99,6.9,10.4,90,0.00,-RA,,0.00,0.0,WeatherDisplay:10.37,2013-02-27 05:45:00,
2013-02-27 00:50:00,39.2,36.5,29.52,SE,146,9.9,16.1,90,0.00,-RA,,0.00,0.0,WeatherDisplay:10.37,2013-02-27 05:50:00,
2013-02-27 00:55:00,39.2,36.5,29.52,East,101,8.8,12.7,90,0.00,-RA,,0.00,0.0,WeatherDisplay:10.37,2013-02-27 05:55:00,
2013-02-27 01:00:00,39.3,36.6,29.52,South,178,7.4,11.5,90,0.00,-RA,,0.00,0.0,WeatherDisplay:10.37,2013-02-27 06:00:00,
2013-02-27 01:05:00,39.3,36.6,29.51,ESE,115,8.6,12.7,90,0.00,-RA,,0.00,0.0,WeatherDisplay:10.37,2013-02-27 06:05:00,
2013-02-27 01:10:00,39.4,36.7,29.52,SE,136,7.5,11.5,90,0.00,-RA,,0.00,0.0,WeatherDisplay:10.37,2013-02-27 06:10:00,
2013-02-27 01:15:00,39.4,36.7,29.52,SSE,160,6.8,10.4,90,0.00,-RA,,0.00,0.0,WeatherDisplay:10.37,2013-02-27 06:15:00,
2013-02-27 01:20:00,39.4,36.7,29.52,ESE,121,6.6,10.4,90,0.00,-RA,,0.00,0.0,WeatherDisplay:10.37,2013-02-27 06:20:00,
2013-02-27 01:25:00,39.3,36.6,29.52,SSE,156,8.9,11.5,90,0.00,-RA,,0.00,0.0,WeatherDisplay:10.37,2013-02-27 06:25:00,
2013-02-27 01:30:00,39.3,36.9,29.52,SE,140,7.6,12.0,91,0.00,-RA,,0.00,0.0,WeatherDisplay:10.37,2013-02-27 06:30:00,
2013-02-27 01:35:00,39.3,36.9,29.52,ESE,119,5.8,6.9,91,0.00,-RA,,0.00,0.0,WeatherDisplay:10.37,2013-02-27 06:35:00,
2013-02-27 01:40:00,39.3,36.9,29.52,SSE,154,7.1,9.2,91,0.01,-RA,,0.01,0.0,WeatherDisplay:10.37,2013-02-27 06:40:00,
2013-02-27 01:45:00,39.3,37.2,29.52,South,189,6.7,10.4,92,0.01,-RA,,0.01,0.0,WeatherDisplay:10.37,2013-02-27 06:45:00,
2013-02-27 01:50:00,39.3,37.2,29.53,SSE,163,3.9,6.9,92,0.01,-RA,,0.01,0.0,WeatherDisplay:10.37,2013-02-27 06:50:00,
2013-02-27 01:55:00,39.2,37.1,29.52,SE,137,7.2,10.4,92,0.01,-RA,,0.01,0.0,WeatherDisplay:10.37,2013-02-27 06:55:00,
2013-02-27 02:00:00,39.2,37.1,29.52,SSE,156,4.6,6.0,92,0.01,-RA,,0.01,0.0,WeatherDisplay:10.37,2013-02-27 07:00:00,
2013-02-27 02:05:00,39.2,37.1,29.52,SE,127,5.0,8.1,92,0.01,OVC,,0.01,0.0,WeatherDisplay:10.37,2013-02-27 07:05:00,
2013-02-27 02:10:00,39.2,37.1,29.52,SE,124,5.2,6.9,92,0.01,OVC,,0.01,0.0,WeatherDisplay:10.37,2013-02-27 07:10:00,
2013-02-27 02:15:00,39.2,37.3,29.52,SE,132,6.0,8.1,93,0.02,RA,,0.02,0.0,WeatherDisplay:10.37,2013-02-27 07:15:00,
2013-02-27 02:20:00,39.2,37.3,29.52,South,186,5.1,9.2,93,0.02,RA,,0.02,0.0,WeatherDisplay:10.37,2013-02-27 07:20:00,
2013-02-27 02:25:00,39.2,37.3,29.52,SW,234,2.5,4.6,93,0.02,OVC,,0.02,0.0,WeatherDisplay:10.37,2013-02-27 07:25:00,
2013-02-27 02:30:00,39.2,37.3,29.52,SSE,155,3.6,5.8,93,0.02,OVC,,0.02,0.0,WeatherDisplay:10.37,2013-02-27 07:30:00,
2013-02-27 02:35:00,39.2,37.3,29.52,SSE,158,7.9,11.5,93,0.02,OVC,,0.02,0.0,WeatherDisplay:10.37,2013-02-27 07:35:00,
2013-02-27 02:40:00,39.3,37.4,29.52,SSE,156,4.6,10.4,93,0.01,OVC,,0.02,0.0,WeatherDisplay:10.37,2013-02-27 07:40:00,
2013-02-27 02:45:00,39.3,37.4,29.52,SSE,158,4.9,5.0,93,0.01,OVC,,0.02,0.0,WeatherDisplay:10.37,2013-02-27 07:45:00,
2013-02-27 02:50:00,39.3,37.4,29.52,South,173,4.9,9.2,93,0.01,OVC,,0.02,0.0,WeatherDisplay:10.37,2013-02-27 07:50:00,
2013-02-27 02:55:00,39.3,37.4,29.52,South,188,3.3,8.1,93,0.01,OVC,,0.02,0.0,WeatherDisplay:10.37,2013-02-27 07:55:00,
2013-02-27 03:00:00,39.3,37.4,29.52,South,180,4.6,6.9,93,0.01,OVC,,0.02,0.0,WeatherDisplay:10.37,2013-02-27 08:00:00,
2013-02-27 03:05:00,39.3,37.4,29.52,SSE,157,5.2,8.1,93,0.02,-RA,,0.03,0.0,WeatherDisplay:10.37,2013-02-27 08:05:00,
2013-02-27 03:10:00,39.2,37.3,29.52,South,169,2.6,3.5,93,0.02,-RA,,0.03,0.0,WeatherDisplay:10.37,2013-02-27 08:10:00,
2013-02-27 03:15:00,39.2,37.6,29.51,SSE,161,3.9,6.9,94,0.01,-RA,,0.03,0.0,WeatherDisplay:10.37,2013-02-27 08:15:00,
2013-02-27 03:20:00,39.2,37.6,29.51,SE,143,2.6,5.0,94,0.01,-RA,,0.03,0.0,WeatherDisplay:10.37,2013-02-27 08:20:00,
2013-02-27 03:25:00,39.1,37.5,29.51,SSE,158,3.4,5.8,94,0.01,-RA,,0.03,0.0,WeatherDisplay:10.37,2013-02-27 08:25:00,
2013-02-27 03:30:00,39.1,37.5,29.51,SSE,160,4.2,8.1,94,0.01,-RA,,0.03,0.0,WeatherDisplay:10.37,2013-02-27 08:30:00,
2013-02-27 03:35:00,39.1,37.5,29.51,South,186,2.8,4.6,94,0.01,-RA,,0.03,0.0,WeatherDisplay:10.37,2013-02-27 08:35:00,
2013-02-27 03:40:00,39.1,37.5,29.51,SSE,161,2.7,4.6,94,0.01,-RA,,0.03,0.0,WeatherDisplay:10.37,2013-02-27 08:40:00,
2013-02-27 03:45:00,39.1,37.5,29.52,SSE,161,3.0,6.9,94,0.01,-RA,,0.03,0.0,WeatherDisplay:10.37,2013-02-27 08:45:00,
2013-02-27 03:50:00,39.0,37.4,29.52,ESE,121,4.3,5.8,94,0.01,-RA,,0.03,0.0,WeatherDisplay:10.37,2013-02-27 08:50:00,
2013-02-27 03:55:00,39.0,37.7,29.52,WSW,241,3.8,5.8,95,0.01,-RA,,0.03,0.0,WeatherDisplay:10.37,2013-02-27 08:55:00,
2013-02-27 04:00:00,39.0,37.7,29.51,SE,146,3.5,4.6,95,0.01,-RA,,0.03,0.0,WeatherDisplay:10.37,2013-02-27 09:00:00,
2013-02-27 04:05:00,39.0,37.7,29.51,SE,144,4.9,9.2,95,0.00,-RA,,0.03,0.0,WeatherDisplay:10.37,2013-02-27 09:05:00,
2013-02-27 04:10:00,39.1,37.8,29.52,SSE,149,3.4,3.5,95,0.00,-RA,,0.03,0.0,WeatherDisplay:10.37,2013-02-27 09:10:00,
2013-02-27 04:15:00,39.1,37.8,29.52,South,170,2.3,4.6,95,0.00,-RA,,0.03,0.0,WeatherDisplay:10.37,2013-02-27 09:15:00,
2013-02-27 04:20:00,39.1,37.8,29.51,SE,130,3.4,4.6,95,0.00,-RA,,0.03,0.0,WeatherDisplay:10.37,2013-02-27 09:20:00,
2013-02-27 04:25:00,39.1,37.8,29.52,SE,145,2.2,4.0,95,0.00,-RA,,0.03,0.0,WeatherDisplay:10.37,2013-02-27 09:25:00,
2013-02-27 04:30:00,39.1,37.8,29.52,SE,142,3.5,5.0,95,0.00,-RA,,0.03,0.0,WeatherDisplay:10.37,2013-02-27 09:30:00,
2013-02-27 04:35:00,39.1,37.8,29.52,West,265,3.0,5.8,95,0.00,-RA,,0.03,0.0,WeatherDisplay:10.37,2013-02-27 09:35:00,
2013-02-27 04:40:00,39.1,37.8,29.52,SSE,159,2.4,3.5,95,0.00,-RA,,0.03,0.0,WeatherDisplay:10.37,2013-02-27 09:40:00,
2013-02-27 04:45:00,39.1,37.8,29.52,South,172,2.4,4.0,95,0.00,-RA,,0.03,0.0,WeatherDisplay:10.37,2013-02-27 09:45:00,
2013-02-27 04:50:00,39.1,37.8,29.53,SSE,155,3.2,5.0,95,0.00,-RA,,0.03,0.0,WeatherDisplay:10.37,2013-02-27 09:50:00,
2013-02-27 04:55:00,39.1,37.8,29.53,South,174,4.1,6.9,95,0.00,-RA,,0.03,0.0,WeatherDisplay:10.37,2013-02-27 09:55:00,
2013-02-27 05:00:00,39.2,37.9,29.53,South,174,1.5,3.5,95,0.01,-RA,,0.04,0.0,WeatherDisplay:10.37,2013-02-27 10:00:00,
2013-02-27 05:05:00,39.2,37.9,29.53,SSW,198,2.3,5.0,95,0.01,-RA,,0.04,0.0,WeatherDisplay:10.37,2013-02-27 10:05:00,
2013-02-27 05:10:00,39.2,37.9,29.53,South,190,3.6,5.8,95,0.01,-RA,,0.04,0.0,WeatherDisplay:10.37,2013-02-27 10:10:00,
2013-02-27 05:15:00,39.3,38.0,29.53,South,190,3.5,6.9,95,0.02,-RA,,0.05,0.0,WeatherDisplay:10.37,2013-02-27 10:15:00,
2013-02-27 05:20:00,39.3,38.0,29.54,SSE,167,3.5,5.8,95,0.02,-RA,,0.05,0.0,WeatherDisplay:10.37,2013-02-27 10:20:00,
2013-02-27 05:25:00,39.3,38.0,29.54,South,186,2.5,4.6,95,0.02,-RA,,0.05,0.0,WeatherDisplay:10.37,2013-02-27 10:25:00,
2013-02-27 05:30:00,39.3,38.0,29.54,South,190,3.4,5.0,95,0.03,-RA,,0.06,0.0,WeatherDisplay:10.37,2013-02-27 10:30:00,
2013-02-27 05:35:00,39.3,38.0,29.54,South,185,1.9,6.0,95,0.03,-RA,,0.06,0.0,WeatherDisplay:10.37,2013-02-27 10:35:00,
2013-02-27 05:40:00,39.4,38.1,29.54,SW,227,2.7,4.0,95,0.03,-RA,,0.06,0.0,WeatherDisplay:10.37,2013-02-27 10:40:00,
2013-02-27 05:45:00,39.5,38.2,29.54,South,183,1.5,4.0,95,0.04,-RA,,0.07,0.0,WeatherDisplay:10.37,2013-02-27 10:45:00,
2013-02-27 05:50:00,39.5,38.5,29.54,South,181,2.6,3.5,96,0.04,-RA,,0.07,0.0,WeatherDisplay:10.37,2013-02-27 10:50:00,
2013-02-27 05:55:00,39.5,38.5,29.55,South,169,1.9,3.5,96,0.04,-RA,,0.07,0.0,WeatherDisplay:10.37,2013-02-27 10:55:00,
2013-02-27 06:00:00,39.6,38.6,29.55,South,182,2.6,3.5,96,0.03,-RA,,0.07,0.0,WeatherDisplay:10.37,2013-02-27 11:00:00,
2013-02-27 06:05:00,39.7,38.7,29.55,SSE,167,2.6,5.8,96,0.03,-RA,,0.07,0.0,WeatherDisplay:10.37,2013-02-27 11:05:00,
2013-02-27 06:10:00,39.7,38.7,29.55,SSW,213,2.9,3.5,96,0.03,-RA,,0.07,0.0,WeatherDisplay:10.37,2013-02-27 11:10:00,
2013-02-27 06:15:00,39.7,38.7,29.55,South,183,4.3,5.8,96,0.02,-RA,,0.07,0.0,WeatherDisplay:10.37,2013-02-27 11:15:00,
2013-02-27 06:20:00,39.8,38.8,29.55,SW,215,3.1,6.0,96,0.02,-RA,,0.07,0.0,WeatherDisplay:10.37,2013-02-27 11:20:00,
2013-02-27 06:25:00,39.9,38.9,29.55,West,261,5.2,9.2,96,0.02,-RA,,0.07,0.0,WeatherDisplay:10.37,2013-02-27 11:25:00,
2013-02-27 06:30:00,40.0,39.0,29.55,SW,236,5.8,11.0,96,0.01,-RA,,0.07,0.0,WeatherDisplay:10.37,2013-02-27 11:30:00,
2013-02-27 06:35:00,40.0,39.0,29.55,WSW,254,7.7,9.2,96,0.01,-RA,,0.07,0.0,WeatherDisplay:10.37,2013-02-27 11:35:00,
2013-02-27 06:40:00,40.1,38.8,29.56,SW,230,4.6,6.9,95,0.01,-RA,,0.07,0.0,WeatherDisplay:10.37,2013-02-27 11:40:00,
2013-02-27 06:45:00,40.1,39.1,29.56,WSW,242,5.8,6.0,96,0.00,-RA,,0.07,0.0,WeatherDisplay:10.37,2013-02-27 11:45:00,
2013-02-27 06:50:00,40.0,38.7,29.56,WSW,257,4.8,6.9,95,0.00,-RA,,0.07,0.0,WeatherDisplay:10.37,2013-02-27 11:50:00,
2013-02-27 06:55:00,40.0,38.7,29.56,WSW,244,9.0,11.5,95,0.00,-RA,,0.07,0.0,WeatherDisplay:10.37,2013-02-27 11:55:00,
2013-02-27 07:00:00,40.0,38.7,29.56,SW,231,6.0,11.5,95,0.00,-RA,,0.07,0.0,WeatherDisplay:10.37,2013-02-27 12:00:00,
2013-02-27 07:05:00,40.0,38.4,29.56,SW,225,6.0,9.2,94,0.00,-RA,,0.07,0.0,WeatherDisplay:10.37,2013-02-27 12:05:00,
2013-02-27 07:10:00,40.0,38.4,29.57,SW,236,7.5,10.4,94,0.00,-RA,,0.07,0.0,WeatherDisplay:10.37,2013-02-27 12:10:00,
2013-02-27 07:15:00,40.0,38.1,29.57,SW,232,2.5,5.8,93,0.00,-RA,,0.07,0.0,WeatherDisplay:10.37,2013-02-27 12:15:00,
2013-02-27 07:20:00,40.0,38.1,29.57,West,279,5.0,8.0,93,0.00,-RA,,0.07,7.0,WeatherDisplay:10.37,2013-02-27 12:20:00,
2013-02-27 07:25:00,40.0,38.1,29.57,WSW,246,6.0,9.2,93,0.00,-RA,,0.07,9.0,WeatherDisplay:10.37,2013-02-27 12:25:00,
2013-02-27 07:30:00,39.9,37.8,29.57,WSW,254,7.9,12.7,92,0.00,-RA,,0.07,9.0,WeatherDisplay:10.37,2013-02-27 12:30:00,
2013-02-27 07:35:00,39.9,37.8,29.58,SSW,199,4.4,8.1,92,0.00,-RA,,0.07,14.0,WeatherDisplay:10.37,2013-02-27 12:35:00,
2013-02-27 07:40:00,39.8,37.7,29.58,SW,216,7.2,11.5,92,0.00,-RA,,0.07,30.0,WeatherDisplay:10.37,2013-02-27 12:40:00,
2013-02-27 07:45:00,39.8,37.4,29.58,WSW,243,7.9,12.7,91,0.00,-RA,,0.07,42.0,WeatherDisplay:10.37,2013-02-27 12:45:00,
2013-02-27 07:50:00,39.8,37.4,29.58,WSW,250,6.6,10.0,91,0.00,-RA,,0.07,58.0,WeatherDisplay:10.37,2013-02-27 12:50:00,
2013-02-27 07:55:00,39.8,37.4,29.58,WSW,244,3.6,9.2,91,0.00,-RA,,0.07,56.0,WeatherDisplay:10.37,2013-02-27 12:55:00,
2013-02-27 08:00:00,39.9,37.5,29.58,SW,214,3.2,8.1,91,0.00,-RA,,0.07,62.0,WeatherDisplay:10.37,2013-02-27 13:00:00,
2013-02-27 08:05:00,39.9,37.5,29.59,SW,236,2.5,6.0,91,0.00,OVC,,0.07,72.0,WeatherDisplay:10.37,2013-02-27 13:05:00,
2013-02-27 08:10:00,40.0,37.6,29.58,SW,227,6.1,8.1,91,0.00,OVC,,0.07,97.0,WeatherDisplay:10.37,2013-02-27 13:10:00,
2013-02-27 08:15:00,40.1,37.7,29.59,SW,232,4.8,6.9,91,0.00,OVC,,0.07,104.0,WeatherDisplay:10.37,2013-02-27 13:15:00,
2013-02-27 08:20:00,40.2,37.8,29.59,SSW,211,5.0,9.2,91,0.00,OVC,,0.07,81.0,WeatherDisplay:10.37,2013-02-27 13:20:00,
2013-02-27 08:25:00,40.2,37.8,29.59,SSW,195,5.2,8.1,91,0.00,OVC,,0.07,81.0,WeatherDisplay:10.37,2013-02-27 13:25:00,
2013-02-27 08:30:00,40.2,37.8,29.59,SSW,211,4.9,9.2,91,0.00,OVC,,0.07,113.0,WeatherDisplay:10.37,2013-02-27 13:30:00,
2013-02-27 08:35:00,40.3,37.6,29.60,WSW,246,6.4,9.2,90,0.00,OVC,,0.07,134.0,WeatherDisplay:10.37,2013-02-27 13:35:00,
2013-02-27 08:40:00,40.4,37.7,29.60,SSW,205,7.6,18.4,90,0.00,OVC,,0.07,160.0,WeatherDisplay:10.37,2013-02-27 13:40:00,
2013-02-27 08:45:00,40.6,38.2,29.60,WSW,257,5.6,8.1,91,0.00,OVC,,0.07,234.0,WeatherDisplay:10.37,2013-02-27 13:45:00,
2013-02-27 08:50:00,40.9,38.2,29.60,SSW,201,5.6,8.1,90,0.00,OVC,,0.07,156.0,WeatherDisplay:10.37,2013-02-27 13:50:00,
2013-02-27 08:55:00,40.9,38.2,29.60,SSW,205,6.2,12.7,90,0.00,OVC,,0.07,120.0,WeatherDisplay:10.37,2013-02-27 13:55:00,
2013-02-27 09:00:00,40.8,38.1,29.60,WSW,241,10.2,15.0,90,0.00,OVC,,0.07,116.0,WeatherDisplay:10.37,2013-02-27 14:00:00,
2013-02-27 09:05:00,40.7,38.0,29.60,SW,224,3.7,11.5,90,0.00,OVC,,0.07,100.0,WeatherDisplay:10.37,2013-02-27 14:05:00,
2013-02-27 09:10:00,40.7,38.0,29.60,SSW,211,6.5,10.4,90,0.00,OVC,,0.07,104.0,WeatherDisplay:10.37,2013-02-27 14:10:00,
2013-02-27 09:15:00,40.7,38.0,29.60,WSW,246,7.4,11.5,90,0.00,OVC,,0.07,109.0,WeatherDisplay:10.37,2013-02-27 14:15:00,
2013-02-27 09:20:00,40.7,38.3,29.60,West,281,3.8,5.8,91,0.00,OVC,,0.07,121.0,WeatherDisplay:10.37,2013-02-27 14:20:00,
2013-02-27 09:25:00,40.8,38.4,29.60,South,190,7.1,9.2,91,0.00,OVC,,0.07,121.0,WeatherDisplay:10.37,2013-02-27 14:25:00,
2013-02-27 09:30:00,40.8,38.4,29.60,WSW,254,6.1,7.0,91,0.00,OVC,,0.07,105.0,WeatherDisplay:10.37,2013-02-27 14:30:00,
2013-02-27 09:35:00,40.8,38.4,29.60,SSW,207,8.6,11.5,91,0.00,OVC,,0.07,105.0,WeatherDisplay:10.37,2013-02-27 14:35:00,
2013-02-27 09:40:00,40.8,38.4,29.60,WSW,244,3.7,11.5,91,0.00,OVC,,0.07,146.0,WeatherDisplay:10.37,2013-02-27 14:40:00,
2013-02-27 09:45:00,41.0,38.9,29.60,WSW,248,2.9,5.8,92,0.00,OVC,,0.07,153.0,WeatherDisplay:10.37,2013-02-27 14:45:00,
2013-02-27 09:50:00,41.1,39.0,29.60,SW,223,5.8,11.5,92,0.00,OVC,,0.07,123.0,WeatherDisplay:10.37,2013-02-27 14:50:00,
2013-02-27 09:55:00,41.1,38.7,29.60,WSW,237,3.7,5.8,91,0.00,OVC,,0.07,88.0,WeatherDisplay:10.37,2013-02-27 14:55:00,
2013-02-27 10:00:00,41.0,38.6,29.60,WSW,237,5.8,11.5,91,0.00,OVC,,0.07,81.0,WeatherDisplay:10.37,2013-02-27 15:00:00,
2013-02-27 10:05:00,41.0,38.3,29.60,WSW,257,6.8,11.5,90,0.00,-RA,,0.07,116.0,WeatherDisplay:10.37,2013-02-27 15:05:00,
2013-02-27 10:10:00,41.1,38.7,29.60,WSW,253,5.4,9.0,91,0.00,-RA,,0.07,127.0,WeatherDisplay:10.37,2013-02-27 15:10:00,
2013-02-27 10:15:00,41.2,38.8,29.60,WSW,240,6.6,11.5,91,0.00,-RA,,0.07,104.0,WeatherDisplay:10.37,2013-02-27 15:15:00,
2013-02-27 10:20:00,41.2,38.5,29.60,SSW,192,8.0,9.2,90,0.00,-RA,,0.07,109.0,WeatherDisplay:10.37,2013-02-27 15:20:00,
2013-02-27 10:25:00,41.3,38.6,29.60,SSW,207,8.0,12.7,90,0.00,-RA,,0.07,153.0,WeatherDisplay:10.37,2013-02-27 15:25:00,
2013-02-27 10:30:00,41.5,38.8,29.61,West,261,10.3,17.3,90,0.00,-RA,,0.07,167.0,WeatherDisplay:10.37,2013-02-27 15:30:00,
2013-02-27 10:35:00,41.6,38.6,29.61,WSW,241,13.1,18.4,89,0.00,-RA,,0.07,162.0,WeatherDisplay:10.37,2013-02-27 15:35:00,
2013-02-27 10:40:00,41.6,38.6,29.61,SSW,200,8.4,15.0,89,0.00,-RA,,0.07,165.0,WeatherDisplay:10.37,2013-02-27 15:40:00,
2013-02-27 10:45:00,41.7,38.4,29.61,South,191,10.3,15.0,88,0.00,-RA,,0.07,155.0,WeatherDisplay:10.37,2013-02-27 15:45:00,
2013-02-27 10:50:00,41.8,38.5,29.61,SW,215,8.2,10.4,88,0.00,-RA,,0.07,202.0,WeatherDisplay:10.37,2013-02-27 15:50:00,
2013-02-27 10:55:00,42.1,38.8,29.61,WSW,246,5.9,10.4,88,0.00,-RA,,0.07,163.0,WeatherDisplay:10.37,2013-02-27 15:55:00,
2013-02-27 11:00:00,42.1,38.5,29.61,WSW,238,8.0,17.3,87,0.00,-RA,,0.07,134.0,WeatherDisplay:10.37,2013-02-27 16:00:00,
2013-02-27 11:05:00,42.0,38.4,29.61,SW,227,9.6,9.6,87,0.00,OVC,,0.07,127.0,WeatherDisplay:10.37,2013-02-27 16:05:00,
2013-02-27 11:10:00,41.9,38.3,29.61,SSW,211,8.2,13.0,87,0.00,OVC,,0.07,93.0,WeatherDisplay:10.37,2013-02-27 16:10:00,
2013-02-27 11:15:00,41.8,38.2,29.61,SSW,203,6.0,12.7,87,0.00,OVC,,0.07,97.0,WeatherDisplay:10.37,2013-02-27 16:15:00,
2013-02-27 11:20:00,41.7,38.1,29.61,West,261,9.6,11.5,87,0.00,OVC,,0.07,107.0,WeatherDisplay:10.37,2013-02-27 16:20:00,
2013-02-27 11:25:00,41.7,37.8,29.61,WSW,247,9.9,19.6,86,0.00,OVC,,0.07,102.0,WeatherDisplay:10.37,2013-02-27 16:25:00,
2013-02-27 11:30:00,41.7,37.8,29.61,WSW,252,8.8,12.7,86,0.00,OVC,,0.07,102.0,WeatherDisplay:10.37,2013-02-27 16:30:00,
2013-02-27 11:35:00,41.6,37.7,29.61,West,269,8.1,12.7,86,0.00,OVC,,0.07,83.0,WeatherDisplay:10.37,2013-02-27 16:35:00,
2013-02-27 11:40:00,41.7,37.8,29.61,WSW,239,8.6,12.7,86,0.00,OVC,,0.07,181.0,WeatherDisplay:10.37,2013-02-27 16:40:00,
2013-02-27 11:45:00,42.1,37.9,29.61,SW,233,10.1,16.1,85,0.00,OVC,,0.07,218.0,WeatherDisplay:10.37,2013-02-27 16:45:00,
2013-02-27 11:50:00,42.3,38.1,29.61,SW,233,6.6,11.5,85,0.00,OVC,,0.07,221.0,WeatherDisplay:10.37,2013-02-27 16:50:00,
2013-02-27 11:55:00,42.8,38.6,29.61,SSW,200,7.2,10.4,85,0.00,OVC,,0.07,199.0,WeatherDisplay:10.37,2013-02-27 16:55:00,
2013-02-27 12:00:00,42.7,37.9,29.61,SSW,200,10.1,19.6,83,0.00,OVC,,0.07,146.0,WeatherDisplay:10.37,2013-02-27 17:00:00,
2013-02-27 12:05:00,42.6,38.1,29.61,SW,217,4.9,10.4,84,0.00,OVC,,0.07,128.0,WeatherDisplay:10.37,2013-02-27 17:05:00,
2013-02-27 12:10:00,42.4,37.9,29.61,WSW,250,6.9,11.5,84,0.00,OVC,,0.07,139.0,WeatherDisplay:10.37,2013-02-27 17:10:00,
2013-02-27 12:15:00,42.4,37.9,29.61,SSW,205,6.5,13.8,84,0.00,OVC,,0.07,113.0,WeatherDisplay:10.37,2013-02-27 17:15:00,
2013-02-27 12:20:00,42.3,37.5,29.61,SW,222,10.4,15.0,83,0.00,OVC,,0.07,134.0,WeatherDisplay:10.37,2013-02-27 17:20:00,
2013-02-27 12:25:00,42.3,37.8,29.61,SW,217,6.3,9.2,84,0.00,OVC,,0.07,149.0,WeatherDisplay:10.37,2013-02-27 17:25:00,
2013-02-27 12:30:00,42.4,37.9,29.61,SW,223,9.7,15.0,84,0.00,OVC,,0.07,171.0,WeatherDisplay:10.37,2013-02-27 17:30:00,
2013-02-27 12:35:00,42.5,37.7,29.61,WSW,257,7.5,11.5,83,0.00,OVC,,0.07,171.0,WeatherDisplay:10.37,2013-02-27 17:35:00,
2013-02-27 12:40:00,42.6,37.8,29.61,SW,227,5.5,11.5,83,0.00,OVC,,0.07,151.0,WeatherDisplay:10.37,2013-02-27 17:40:00,
2013-02-27 12:45:00,42.6,37.8,29.61,SW,236,4.2,12.7,83,0.00,OVC,,0.07,123.0,WeatherDisplay:10.37,2013-02-27 17:45:00,
2013-02-27 12:50:00,42.5,37.4,29.61,SSW,200,6.3,12.7,82,0.00,OVC,,0.07,183.0,WeatherDisplay:10.37,2013-02-27 17:50:00,
2013-02-27 12:55:00,42.8,37.7,29.61,SW,225,6.5,17.3,82,0.00,OVC,,0.07,178.0,WeatherDisplay:10.37,2013-02-27 17:55:00,
2013-02-27 13:00:00,42.8,38.0,29.60,SW,227,3.8,8.1,83,0.00,OVC,,0.07,130.0,WeatherDisplay:10.37,2013-02-27 18:00:00,
2013-02-27 13:05:00,42.8,38.0,29.60,WSW,250,4.2,8.0,83,0.00,OVC,,0.07,139.0,WeatherDisplay:10.37,2013-02-27 18:05:00,
2013-02-27 13:10:00,42.8,37.7,29.60,SW,215,3.9,5.8,82,0.00,OVC,,0.07,167.0,WeatherDisplay:10.37,2013-02-27 18:10:00,
2013-02-27 13:15:00,42.9,37.5,29.60,WSW,254,6.6,9.2,81,0.00,OVC,,0.07,141.0,WeatherDisplay:10.37,2013-02-27 18:15:00,
2013-02-27 13:20:00,42.9,37.8,29.60,WSW,250,5.9,8.1,82,0.00,OVC,,0.07,81.0,WeatherDisplay:10.37,2013-02-27 18:20:00,
2013-02-27 13:25:00,42.8,37.4,29.60,SW,222,4.1,9.2,81,0.00,OVC,,0.07,39.0,WeatherDisplay:10.37,2013-02-27 18:25:00,
2013-02-27 13:30:00,42.5,38.0,29.61,WSW,251,7.7,11.5,84,0.00,OVC,,0.07,44.0,WeatherDisplay:10.37,2013-02-27 18:30:00,
2013-02-27 13:35:00,41.9,37.4,29.60,WSW,246,9.0,12.7,84,0.00,OVC,,0.07,72.0,WeatherDisplay:10.37,2013-02-27 18:35:00,
2013-02-27 13:40:00,41.3,37.4,29.61,SW,236,5.0,9.0,86,0.00,OVC,,0.07,67.0,WeatherDisplay:10.37,2013-02-27 18:40:00,
2013-02-27 13:45:00,41.0,37.4,29.61,WSW,242,8.6,11.5,87,0.00,OVC,,0.07,60.0,WeatherDisplay:10.37,2013-02-27 18:45:00,
2013-02-27 13:50:00,40.7,37.1,29.61,WSW,241,7.0,10.0,87,0.00,OVC,,0.07,130.0,WeatherDisplay:10.37,2013-02-27 18:50:00,
2013-02-27 13:55:00,40.2,37.3,29.61,WSW,240,6.0,12.0,89,0.00,RA,,0.08,172.0,WeatherDisplay:10.37,2013-02-27 18:55:00,
2013-02-27 14:00:00,40.2,37.5,29.61,WSW,242,7.0,12.0,90,0.00,-RA,,0.08,163.0,WeatherDisplay:10.37,2013-02-27 19:00:00,
2013-02-27 14:05:00,40.1,37.4,29.61,WSW,241,8.0,12.0,90,0.00,-RA,,0.08,141.0,WeatherDisplay:10.37,2013-02-27 19:05:00,
2013-02-27 14:10:00,40.1,37.7,29.61,WSW,239,5.0,9.0,91,0.00,-RA,,0.08,160.0,WeatherDisplay:10.37,2013-02-27 19:10:00,
2013-02-27 14:15:00,40.2,37.5,29.61,WSW,245,8.0,12.0,90,0.00,-RA,,0.08,160.0,WeatherDisplay:10.37,2013-02-27 19:15:00,
2013-02-27 14:20:00,40.5,38.1,29.61,WSW,253,7.0,13.0,91,0.00,-RA,,0.08,165.0,WeatherDisplay:10.37,2013-02-27 19:20:00,
2013-02-27 14:25:00,40.5,37.8,29.61,WSW,246,6.3,9.2,90,0.01,-RA,,0.08,176.0,WeatherDisplay:10.37,2013-02-27 19:25:00,
2013-02-27 14:30:00,40.7,38.3,29.61,SW,236,6.0,10.0,91,0.00,-RA,,0.08,109.0,WeatherDisplay:10.37,2013-02-27 19:30:00,
2013-02-27 14:35:00,40.6,37.9,29.61,SW,234,5.0,5.0,90,0.00,-RA,,0.08,79.0,WeatherDisplay:10.37,2013-02-27 19:35:00,
2013-02-27 14:40:00,40.6,38.2,29.61,WSW,257,5.0,9.0,91,0.00,-RA,,0.08,102.0,WeatherDisplay:10.37,2013-02-27 19:40:00,
2013-02-27 14:45:00,40.5,38.1,29.61,West,273,5.0,9.0,91,0.00,-RA,,0.08,91.0,WeatherDisplay:10.37,2013-02-27 19:45:00,
2013-02-27 14:50:00,40.2,37.5,29.61,West,268,6.0,7.0,90,0.00,-RA,,0.08,98.0,WeatherDisplay:10.37,2013-02-27 19:50:00,
2013-02-27 14:55:00,40.0,37.6,29.61,West,263,9.0,13.0,91,0.01,-RA,,0.09,47.0,WeatherDisplay:10.37,2013-02-27 19:55:00,
2013-02-27 15:00:00,39.7,37.0,29.62,West,267,7.0,9.0,90,0.00,-RA,,0.09,102.0,WeatherDisplay:10.37,2013-02-27 20:00:00,
2013-02-27 15:05:00,39.3,36.9,29.62,West,261,8.0,12.0,91,0.00,-RA,,0.09,141.0,WeatherDisplay:10.37,2013-02-27 20:05:00,
2013-02-27 15:10:00,39.1,36.7,29.62,WSW,251,7.0,10.0,91,0.00,-RA,,0.09,135.0,WeatherDisplay:10.37,2013-02-27 20:10:00,
2013-02-27 15:15:00,38.9,36.5,29.62,WSW,258,6.0,6.0,91,0.00,-RA,,0.09,93.0,WeatherDisplay:10.37,2013-02-27 20:15:00,
2013-02-27 15:20:00,39.0,36.9,29.62,West,262,9.0,12.0,92,0.00,-RA,,0.09,123.0,WeatherDisplay:10.37,2013-02-27 20:20:00,
2013-02-27 15:25:00,39.0,36.9,29.62,WSW,257,5.0,7.0,92,0.00,-RA,,0.09,83.0,WeatherDisplay:10.37,2013-02-27 20:25:00,
2013-02-27 15:30:00,38.9,36.8,29.62,WSW,250,6.0,10.0,92,0.00,-RA,,0.09,72.0,WeatherDisplay:10.37,2013-02-27 20:30:00,
2013-02-27 15:35:00,38.8,36.7,29.62,WSW,243,8.0,14.0,92,0.00,-RA,,0.09,90.0,WeatherDisplay:10.37,2013-02-27 20:35:00,
2013-02-27 15:40:00,38.6,36.2,29.63,WSW,250,9.0,12.0,91,0.00,-RA,,0.10,67.0,WeatherDisplay:10.37,2013-02-27 20:40:00,
2013-02-27 15:45:00,38.4,36.0,29.63,WSW,253,7.0,8.0,91,0.00,-RA,,0.10,32.0,WeatherDisplay:10.37,2013-02-27 20:45:00,
2013-02-27 15:50:00,38.3,35.9,29.63,WSW,258,9.0,17.0,91,0.01,-RA,,0.11,40.0,WeatherDisplay:10.37,2013-02-27 20:50:00,
2013-02-27 15:55:00,37.9,35.5,29.64,WSW,256,9.0,14.0,91,0.00,-RA,,0.11,54.0,WeatherDisplay:10.37,2013-02-27 20:55:00,
2013-02-27 16:00:00,37.6,35.4,29.63,WSW,252,6.0,8.0,92,0.00,-RA,,0.11,67.0,WeatherDisplay:10.37,2013-02-27 21:00:00,
2013-02-27 16:05:00,37.5,35.4,29.63,WSW,253,3.0,9.0,92,0.00,-RA,,0.11,58.0,WeatherDisplay:10.37,2013-02-27 21:05:00,
2013-02-27 16:10:00,37.4,35.6,29.64,WSW,245,8.0,16.0,93,0.00,-RA,,0.11,49.0,WeatherDisplay:10.37,2013-02-27 21:10:00,
2013-02-27 16:15:00,37.2,35.1,29.63,WSW,246,8.0,10.0,92,0.00,-RA,,0.12,26.0,WeatherDisplay:10.37,2013-02-27 21:15:00,
2013-02-27 16:20:00,37.1,35.0,29.64,WSW,243,10.0,13.0,92,0.00,-RA,,0.12,49.0,WeatherDisplay:10.37,2013-02-27 21:20:00,
2013-02-27 16:25:00,36.9,34.8,29.64,WSW,242,8.0,10.0,92,0.00,-RA,,0.12,40.0,WeatherDisplay:10.37,2013-02-27 21:25:00,
2013-02-27 16:30:00,36.8,34.7,29.64,WSW,247,7.0,7.0,92,0.00,-RA,,0.12,49.0,WeatherDisplay:10.37,2013-02-27 21:30:00,
2013-02-27 16:35:00,36.6,34.5,29.64,WSW,254,8.0,10.0,92,0.00,-RA,,0.12,39.0,WeatherDisplay:10.37,2013-02-27 21:35:00,
2013-02-27 16:40:00,36.6,34.5,29.64,WSW,253,8.0,12.0,92,0.00,-RA,,0.13,35.0,WeatherDisplay:10.37,2013-02-27 21:40:00,
2013-02-27 16:45:00,36.5,34.4,29.64,WSW,251,5.0,10.0,92,0.00,-RA,,0.13,32.0,WeatherDisplay:10.37,2013-02-27 21:45:00,
2013-02-27 16:50:00,36.4,34.6,29.64,WSW,255,6.0,9.0,93,0.00,-RA,,0.13,35.0,WeatherDisplay:10.37,2013-02-27 21:50:00,
2013-02-27 16:55:00,36.3,34.4,29.64,WSW,255,6.0,9.0,93,0.00,-RA,,0.13,32.0,WeatherDisplay:10.37,2013-02-27 21:55:00,
2013-02-27 17:00:00,36.1,34.3,29.64,WSW,257,9.2,11.5,93,0.02,-RA,,0.13,30.0,WeatherDisplay:10.37,2013-02-27 22:00:00,
2013-02-27 17:05:00,35.9,33.8,29.64,West,260,6.6,10.4,92,0.03,-RA,,0.14,33.0,WeatherDisplay:10.37,2013-02-27 22:05:00,
2013-02-27 17:10:00,35.8,34.0,29.64,SW,236,4.0,6.0,93,0.03,-RA,,0.14,28.0,WeatherDisplay:10.37,2013-02-27 22:10:00,
2013-02-27 17:15:00,35.7,33.9,29.65,SW,234,6.2,11.5,93,0.02,-RA,,0.14,25.0,WeatherDisplay:10.37,2013-02-27 22:15:00,
2013-02-27 17:20:00,35.6,33.8,29.65,SW,223,6.9,6.9,93,0.02,-RA,,0.14,21.0,WeatherDisplay:10.37,2013-02-27 22:20:00,
2013-02-27 17:25:00,35.6,33.8,29.65,WSW,250,4.5,8.1,93,0.02,-RA,,0.14,16.0,WeatherDisplay:10.37,2013-02-27 22:25:00,
2013-02-27 17:30:00,35.5,33.7,29.65,WSW,253,5.1,10.4,93,0.02,-RA,,0.14,12.0,WeatherDisplay:10.37,2013-02-27 22:30:00,
2013-02-27 17:35:00,35.4,33.8,29.65,SW,217,4.1,5.8,94,0.02,-RA,,0.14,12.0,WeatherDisplay:10.37,2013-02-27 22:35:00,
2013-02-27 17:40:00,35.4,33.8,29.65,SW,236,3.0,4.6,94,0.01,-RA,,0.14,9.0,WeatherDisplay:10.37,2013-02-27 22:40:00,
2013-02-27 17:45:00,35.3,33.7,29.65,SW,235,5.4,6.9,94,0.01,-RA,,0.14,9.0,WeatherDisplay:10.37,2013-02-27 22:45:00,
2013-02-27 17:50:00,35.3,33.5,29.65,WSW,241,7.2,9.2,93,0.02,-RA,,0.15,7.0,WeatherDisplay:10.37,2013-02-27 22:50:00,
2013-02-27 17:55:00,35.3,33.5,29.65,SW,236,7.7,10.4,93,0.02,-RA,,0.15,5.0,WeatherDisplay:10.37,2013-02-27 22:55:00,
2013-02-27 18:00:00,35.2,33.6,29.65,SW,231,5.8,7.0,94,0.02,-RA,,0.15,5.0,WeatherDisplay:10.37,2013-02-27 23:00:00,
2013-02-27 18:05:00,35.2,33.6,29.65,WSW,241,6.1,6.9,94,0.01,-RA,,0.15,0.0,WeatherDisplay:10.37,2013-02-27 23:05:00,
2013-02-27 18:10:00,35.1,33.5,29.66,WSW,240,5.1,5.8,94,0.01,-RA,,0.15,0.0,WeatherDisplay:10.37,2013-02-27 23:10:00,
2013-02-27 18:15:00,35.1,33.5,29.65,SW,228,3.2,4.6,94,0.01,-RA,,0.15,0.0,WeatherDisplay:10.37,2013-02-27 23:15:00,
2013-02-27 18:20:00,35.0,33.4,29.66,SW,227,3.1,6.9,94,0.01,-RA,,0.15,0.0,WeatherDisplay:10.37,2013-02-27 23:20:00,
2013-02-27 18:25:00,35.0,33.4,29.66,SW,231,4.5,5.8,94,0.01,-RA,,0.15,0.0,WeatherDisplay:10.37,2013-02-27 23:25:00,
2013-02-27 18:30:00,35.0,33.4,29.65,SW,229,4.1,5.8,94,0.01,-RA,,0.15,0.0,WeatherDisplay:10.37,2013-02-27 23:30:00,
2013-02-27 18:35:00,34.9,33.3,29.65,WSW,239,4.4,8.1,94,0.01,-RA,,0.15,0.0,WeatherDisplay:10.37,2013-02-27 23:35:00,
2013-02-27 18:41:00,34.9,33.3,29.65,WSW,241,3.4,3.5,94,0.01,-RA,,0.15,0.0,WeatherDisplay:10.37,2013-02-27 23:41:00,
2013-02-27 18:46:00,34.8,33.2,29.65,WSW,237,3.6,3.6,94,0.01,-RA,,0.15,0.0,WeatherDisplay:10.37,2013-02-27 23:46:00,
2013-02-27 18:51:00,34.8,33.2,29.65,WSW,238,4.7,5.8,94,0.00,-RA,,0.15,0.0,WeatherDisplay:10.37,2013-02-27 23:51:00,
2013-02-27 18:56:00,34.8,33.2,29.66,WSW,250,4.0,4.6,94,0.00,-RA,,0.15,0.0,WeatherDisplay:10.37,2013-02-27 23:56:00,
2013-02-27 19:01:00,34.7,33.2,29.66,WSW,245,4.0,8.1,94,0.00,-RA,,0.15,0.0,WeatherDisplay:10.37,2013-02-28 00:01:00,
2013-02-27 19:06:00,34.7,33.2,29.66,WSW,243,3.3,3.5,94,0.00,-RA,,0.15,0.0,WeatherDisplay:10.37,2013-02-28 00:06:00,
2013-02-27 19:11:00,34.7,33.2,29.66,WSW,237,3.7,6.9,94,0.00,-RA,,0.15,0.0,WeatherDisplay:10.37,2013-02-28 00:11:00,
2013-02-27 19:16:00,34.7,33.2,29.66,WSW,240,2.0,3.5,94,0.00,-RA,,0.15,0.0,WeatherDisplay:10.37,2013-02-28 00:16:00,
2013-02-27 19:21:00,34.6,33.1,29.66,SW,218,5.4,10.4,94,0.00,-RA,,0.15,0.0,WeatherDisplay:10.37,2013-02-28 00:21:00,
2013-02-27 19:26:00,34.6,33.1,29.66,WSW,241,5.2,8.1,94,0.00,-RA,,0.15,0.0,WeatherDisplay:10.37,2013-02-28 00:26:00,
2013-02-27 19:31:00,34.6,33.1,29.66,SSW,202,7.3,11.5,94,0.00,-RA,,0.15,0.0,WeatherDisplay:10.37,2013-02-28 00:31:00,
2013-02-27 19:36:00,34.5,33.0,29.66,WSW,245,5.5,8.1,94,0.00,-RA,,0.15,0.0,WeatherDisplay:10.37,2013-02-28 00:36:00,
2013-02-27 19:41:00,34.5,33.0,29.66,SW,230,4.6,6.9,94,0.00,-RA,,0.15,0.0,WeatherDisplay:10.37,2013-02-28 00:41:00,
2013-02-27 19:46:00,34.5,33.0,29.66,WSW,250,6.7,9.2,94,0.00,-RA,,0.15,0.0,WeatherDisplay:10.37,2013-02-28 00:46:00,
2013-02-27 19:52:00,34.4,32.9,29.66,SW,228,5.1,9.2,94,0.00,-RA,,0.15,0.0,WeatherDisplay:10.37,2013-02-28 00:52:00,
2013-02-27 19:57:00,34.4,32.9,29.66,SSW,213,6.0,8.1,94,0.00,-RA,,0.15,0.0,WeatherDisplay:10.37,2013-02-28 00:57:00,
2013-02-27 20:02:00,34.4,32.9,29.66,WSW,254,4.4,7.0,94,0.00,-RA,,0.15,0.0,WeatherDisplay:10.37,2013-02-28 01:02:00,
2013-02-27 20:07:00,34.4,32.9,29.66,SW,218,2.5,4.0,94,0.00,-RA,,0.15,0.0,WeatherDisplay:10.37,2013-02-28 01:07:00,
2013-02-27 20:12:00,34.4,32.9,29.66,WSW,250,2.4,3.5,94,0.01,-RA,,0.16,0.0,WeatherDisplay:10.37,2013-02-28 01:12:00,
2013-02-27 20:17:00,34.3,32.8,29.66,SW,227,5.3,6.9,94,0.01,-RA,,0.16,0.0,WeatherDisplay:10.37,2013-02-28 01:17:00,
2013-02-27 20:22:00,34.3,32.8,29.66,WSW,239,2.5,3.5,94,0.01,-RA,,0.16,0.0,WeatherDisplay:10.37,2013-02-28 01:22:00,
2013-02-27 20:27:00,34.3,32.8,29.66,SW,227,2.3,3.5,94,0.01,-RA,,0.16,0.0,WeatherDisplay:10.37,2013-02-28 01:27:00,
2013-02-27 20:32:00,34.3,32.8,29.66,SW,235,2.9,4.6,94,0.01,-RA,,0.16,0.0,WeatherDisplay:10.37,2013-02-28 01:32:00,
2013-02-27 20:37:00,34.2,32.7,29.66,SW,221,3.3,4.0,94,0.01,-RA,,0.16,0.0,WeatherDisplay:10.37,2013-02-28 01:37:00,
2013-02-27 20:42:00,34.2,32.7,29.66,SSW,209,4.7,5.8,94,0.01,-RA,,0.16,0.0,WeatherDisplay:10.37,2013-02-28 01:42:00,
2013-02-27 20:47:00,34.2,32.7,29.66,SW,225,2.4,4.6,94,0.01,-RA,,0.16,0.0,WeatherDisplay:10.37,2013-02-28 01:47:00,
2013-02-27 20:52:00,34.2,32.7,29.66,SSW,211,6.3,10.4,94,0.01,-RA,,0.16,0.0,WeatherDisplay:10.37,2013-02-28 01:52:00,
2013-02-27 20:57:00,34.1,32.6,29.66,WSW,242,3.5,11.5,94,0.01,-RA,,0.16,0.0,WeatherDisplay:10.37,2013-02-28 01:57:00,
2013-02-27 21:02:00,34.1,32.6,29.66,SSW,211,6.0,10.4,94,0.01,-RA,,0.16,0.0,WeatherDisplay:10.37,2013-02-28 02:02:00,
2013-02-27 21:07:00,34.0,32.5,29.66,SW,230,5.7,8.1,94,0.01,-RA,,0.16,0.0,WeatherDisplay:10.37,2013-02-28 02:07:00,
2013-02-27 21:12:00,33.9,32.4,29.65,SW,234,5.5,10.4,94,0.00,-RA,,0.16,0.0,WeatherDisplay:10.37,2013-02-28 02:12:00,
2013-02-27 21:18:00,33.9,32.4,29.66,WSW,244,4.6,8.1,94,0.00,-RA,,0.16,0.0,WeatherDisplay:10.37,2013-02-28 02:18:00,
2013-02-27 21:23:00,33.8,32.3,29.66,West,266,5.7,8.1,94,0.00,-RA,,0.16,0.0,WeatherDisplay:10.37,2013-02-28 02:23:00,
2013-02-27 21:28:00,33.7,32.2,29.66,West,268,9.0,13.8,94,0.00,-RA,,0.16,0.0,WeatherDisplay:10.37,2013-02-28 02:28:00,
2013-02-27 21:33:00,33.7,32.2,29.66,WSW,252,6.4,9.2,94,0.00,-RA,,0.16,0.0,WeatherDisplay:10.37,2013-02-28 02:33:00,
2013-02-27 21:38:00,33.6,32.1,29.66,SW,235,8.4,11.5,94,0.00,-RA,,0.16,0.0,WeatherDisplay:10.37,2013-02-28 02:38:00,
2013-02-27 21:43:00,33.5,32.0,29.66,SW,223,5.7,10.4,94,0.00,-RA,,0.16,0.0,WeatherDisplay:10.37,2013-02-28 02:43:00,
2013-02-27 21:48:00,33.5,32.0,29.65,WSW,243,3.2,4.6,94,0.00,-RA,,0.16,0.0,WeatherDisplay:10.37,2013-02-28 02:48:00,
2013-02-27 21:53:00,33.4,31.9,29.65,WSW,241,4.2,5.8,94,0.00,-RA,,0.16,0.0,WeatherDisplay:10.37,2013-02-28 02:53:00,
2013-02-27 21:58:00,33.4,31.9,29.65,SW,228,4.6,6.9,94,0.00,-RA,,0.16,0.0,WeatherDisplay:10.37,2013-02-28 02:58:00,
2013-02-27 22:03:00,33.4,31.9,29.65,WSW,258,7.8,11.5,94,0.00,-SN,,0.16,0.0,WeatherDisplay:10.37,2013-02-28 03:03:00,
2013-02-27 22:08:00,33.4,31.9,29.65,WSW,244,3.8,6.9,94,0.00,-SN,,0.16,0.0,WeatherDisplay:10.37,2013-02-28 03:08:00,
2013-02-27 22:13:00,33.4,31.9,29.65,WSW,258,4.1,8.1,94,0.00,-SN,,0.16,0.0,WeatherDisplay:10.37,2013-02-28 03:13:00,
2013-02-27 22:18:00,33.3,31.8,29.65,SSW,211,3.7,5.8,94,0.00,-SN,,0.16,0.0,WeatherDisplay:10.37,2013-02-28 03:18:00,
2013-02-27 22:23:00,33.3,31.8,29.65,WSW,250,5.2,6.9,94,0.00,-SN,,0.16,0.0,WeatherDisplay:10.37,2013-02-28 03:23:00,
2013-02-27 22:28:00,33.3,31.8,29.65,WSW,245,3.8,5.8,94,0.00,-SN,,0.16,0.0,WeatherDisplay:10.37,2013-02-28 03:28:00,
2013-02-27 22:33:00,33.3,31.8,29.64,SW,227,5.6,6.9,94,0.00,-SN,,0.16,0.0,WeatherDisplay:10.37,2013-02-28 03:33:00,
2013-02-27 22:38:00,33.3,31.8,29.64,WSW,244,3.3,4.6,94,0.00,-SN,,0.16,0.0,WeatherDisplay:10.37,2013-02-28 03:38:00,
2013-02-27 22:43:00,33.3,31.8,29.64,WSW,246,6.6,8.1,94,0.00,-SN,,0.16,0.0,WeatherDisplay:10.37,2013-02-28 03:43:00,
2013-02-27 22:48:00,33.3,32.0,29.64,SSW,210,6.0,9.2,95,0.00,-SN,,0.16,0.0,WeatherDisplay:10.37,2013-02-28 03:48:00,
2013-02-27 22:53:00,33.3,32.0,29.64,SW,234,3.9,8.1,95,0.00,-SN,,0.16,0.0,WeatherDisplay:10.37,2013-02-28 03:53:00,
2013-02-27 22:58:00,33.3,32.0,29.64,WSW,252,5.5,8.1,95,0.00,-SN,,0.16,0.0,WeatherDisplay:10.37,2013-02-28 03:58:00,
2013-02-27 23:03:00,33.3,31.8,29.64,SW,217,5.2,9.2,94,0.00,-SN,,0.16,0.0,WeatherDisplay:10.37,2013-02-28 04:03:00,
2013-02-27 23:08:00,33.3,31.8,29.64,SW,215,6.2,9.2,94,0.00,-SN,,0.16,0.0,WeatherDisplay:10.37,2013-02-28 04:08:00,
2013-02-27 23:13:00,33.2,31.7,29.64,WSW,248,5.8,10.4,94,0.00,-SN,,0.16,0.0,WeatherDisplay:10.37,2013-02-28 04:13:00,
2013-02-27 23:18:00,33.2,31.7,29.63,WSW,242,7.8,11.5,94,0.00,-SN,,0.16,0.0,WeatherDisplay:10.37,2013-02-28 04:18:00,
2013-02-27 23:23:00,33.2,31.7,29.63,WSW,254,7.0,9.2,94,0.00,-SN,,0.16,0.0,WeatherDisplay:10.37,2013-02-28 04:23:00,
2013-02-27 23:28:00,33.2,31.7,29.63,SW,234,5.8,8.1,94,0.00,-SN,,0.16,0.0,WeatherDisplay:10.37,2013-02-28 04:28:00,
2013-02-27 23:33:00,33.2,31.7,29.63,SSW,200,4.7,7.0,94,0.00,-SN,,0.16,0.0,WeatherDisplay:10.37,2013-02-28 04:33:00,
2013-02-27 23:38:00,33.2,31.7,29.63,WSW,254,7.5,10.4,94,0.00,-SN,,0.16,0.0,WeatherDisplay:10.37,2013-02-28 04:38:00,
2013-02-27 23:43:00,33.2,31.7,29.63,SW,236,4.2,8.1,94,0.00,-SN,,0.16,0.0,WeatherDisplay:10.37,2013-02-28 04:43:00,
2013-02-27 23:48:00,33.2,31.7,29.63,WSW,251,6.3,9.2,94,0.00,-SN,,0.16,0.0,WeatherDisplay:10.37,2013-02-28 04:48:00,
2013-02-27 23:53:00,33.2,31.4,29.63,WSW,246,5.1,8.1,93,0.00,-SN,,0.16,0.0,WeatherDisplay:10.37,2013-02-28 04:53:00,
2013-02-27 23:58:00,33.2,31.4,29.63,SW,227,4.9,12.7,93,0.00,-SN,,0.16,0.0,WeatherDisplay:10.37,2013-02-28 04:58:00,